DIAMOND RED (42783 NORAD) Tracking and Keplerian Element Data

This shows tracking and keplerian element data for the satellite.

Feedback or suggestion? Click here.




ElementValue
Catalog42783
NameDIAMOND RED
Epoch Orbit5914
Epoch Day198.65808548
Epoch Year2018
RAAN257.8524
Inclination97.3988
Eccentricity0.0011587
Argument of Perigee337.4113
Mean Anonmoly22.6611
Mean Motion15.21521732
Decay Rate8.22E-06
L11 42783U 17036U 18198.65808548 .00000822 00000-0 39549-4 0 9998
L22 42783 97.3988 257.8524 0011587 337.4113 22.6611 15.21521732 59143

Live tracking and technical data element details for DIAMOND RED (NORAD 42783). DIAMOND RED can be tracked NOW for your location showing map with azimuth and elevation plus other details from your city location.

Track the satellite on the map from your city or location and see movement details for azimuth, elevation, latitude, longitude, range, height, and movement on the map or in text.







IsCatalogInMostPopularTable: catalog: 42783, numindb: 134
Update: records affected: 1



GetName: 42783 DIAMOND RED

Hit Count: updated at: Fri, 20 Jul 2018 20:37:02 GMT